Wind_Speed
20 18 16 15 14 14 14 15 16 17 18 18 18 19 19 18 17 17 18 19 20 20 19 18 17 17 18 19 19 19 20 21 22 22 23 23 23 23 23 24 25 26
19 16 15 14 14 13 13 15 16 17 18 18 18 18 18 18 18 18 19 20 20 20 19 18 18 18 19 19 19 20 21 21 22 23 23 23 23 23 24 25 26 27
17 15 14 14 14 13 14 15 16 17 18 18 18 18 18 19 19 19 19 20 21 20 19 18 18 18 19 19 20 20 21 22 23 23 24 24 24 24 25 27 28 29
16 15 15 15 15 14 14 15 16 17 17 17 17 17 18 20 20 19 20 21 21 19 18 18 18 18 19 20 20 21 22 23 23 24 24 24 25 26 27 29 30 31
16 15 15 16 15 14 14 15 15 16 16 16 16 16 19 21 21 20 20 21 20 19 18 18 18 18 19 20 21 22 23 23 24 24 24 25 26 28 29 30 32 33
16 15 15 16 16 15 14 14 15 16 16 16 15 16 19 20 21 21 21 21 20 19 19 18 18 19 20 21 21 22 23 24 24 24 25 26 28 29 31 32 34 35
17 15 15 16 16 15 15 14 15 16 17 16 15 16 18 20 21 21 22 22 21 20 19 18 18 19 20 21 22 23 24 24 24 25 26 28 30 32 33 34 36 36
17 16 16 16 17 16 15 15 16 17 17 16 15 16 18 20 21 21 22 22 21 21 20 19 20 20 21 22 24 24 24 25 25 26 28 30 32 34 36 37 37 37
17 16 16 17 17 16 16 16 17 17 17 16 16 16 18 20 21 21 21 21 21 21 20 20 21 22 22 24 25 25 25 26 27 28 30 32 34 36 37 37 35 34
17 17 17 18 18 16 16 17 18 18 18 17 17 17 18 19 20 20 20 21 21 21 21 22 23 23 24 26 26 27 27 27 29 31 33 34 34 34 33 31 30 31
16 17 18 18 18 16 17 18 19 18 18 17 17 18 18 19 19 18 19 20 21 22 22 23 24 25 27 28 28 28 28 30 31 32 32 31 30 30 29 29 29 30
16 17 18 19 18 17 18 19 19 19 18 18 18 18 18 19 19 19 20 21 21 22 22 23 25 26 28 28 28 29 31 31 30 29 28 28 28 28 29 29 30 30
17 18 19 19 18 17 19 20 20 19 19 19 19 19 19 20 20 21 21 21 22 22 23 24 25 26 28 28 28 30 32 30 27 28 29 29 29 28 29 30 30 31
19 19 20 20 19 18 20 21 20 20 19 19 19 20 21 21 21 21 21 21 22 22 22 24 25 26 28 28 29 30 30 28 28 30 31 30 29 29 30 30 31 32
20 21 22 22 20 19 21 21 21 21 20 19 20 21 21 21 20 21 21 21 21 22 23 24 25 27 29 29 29 30 29 30 31 31 30 30 30 30 30 31 31 32
21 22 23 23 21 21 21 22 21 21 20 20 22 22 22 21 21 21 22 22 22 23 24 25 27 28 29 28 29 29 29 30 31 31 30 30 30 30 31 31 32 32
22 23 24 24 22 22 23 22 22 22 21 22 23 23 22 22 22 23 23 23 24 24 25 26 27 29 28 28 28 29 30 30 31 31 30 30 31 31 31 32 32 31
22 24 25 24 23 23 23 23 23 22 22 23 24 24 23 23 23 24 24 25 25 25 26 26 27 28 28 28 29 29 30 31 32 31 30 31 31 30 31 32 31 29
23 24 24 23 23 23 23 22 22 22 22 24 24 25 24 23 24 25 25 26 26 26 26 26 26 27 28 29 30 31 32 32 32 31 30 31 31 30 31 32 30 29
23 23 24 23 23 23 22 21 21 22 23 24 25 26 25 24 25 25 26 26 27 26 26 26 27 28 29 30 31 32 32 32 32 30 30 31 31 31 32 31 29 29
22 23 23 23 23 22 22 22 23 23 24 25 27 27 26 25 26 26 27 27 26 26 26 26 28 29 31 31 32 32 32 32 31 30 30 32 32 31 31 30 29 29
23 23 23 23 23 23 24 24 25 25 26 27 28 28 27 27 27 27 27 26 25 26 27 27 28 31 32 33 33 32 31 30 29 29 31 32 32 32 30 29 29 30
23 23 23 24 24 25 25 26 27 27 27 28 29 28 28 28 28 27 27 26 25 26 27 27 29 32 34 34 34 33 32 30 28 29 31 33 34 32 29 28 30 31
22 22 23 24 25 25 26 26 27 27 27 28 28 28 28 27 27 27 26 25 25 26 27 28 31 33 35 35 35 35 32 28 26 28 31 33 32 29 27 29 31 31
22 23 24 25 26 26 25 25 26 26 27 28 28 27 26 26 26 26 25 25 26 28 30 31 33 34 35 35 37 37 32 26 25 29 31 30 29 29 30 32 33 32
24 25 26 27 28 26 24 24 25 26 27 27 26 25 25 25 25 26 27 28 30 33 34 34 35 35 34 34 36 35 31 28 29 30 29 29 30 33 34 34 33 33
Wind_Direction
250 255 262 269 274 280 284 287 289 290 289 289 290 293 293 289 281 277 277 275 274 275 274 273 273 274 276 277 280 282 285 287 289 292 294 296 296 296 298 299 302 303
251 257 263 268 275 281 283 285 286 285 286 287 289 291 289 285 280 276 276 275 274 274 272 272 272 273 276 278 281 284 286 289 293 295 296 296 296 297 299 301 302 303
254 260 263 267 272 277 281 282 282 282 284 285 288 290 286 282 278 276 276 275 274 273 271 270 272 274 277 280 283 286 289 293 295 296 296 296 298 300 301 302 302 302
255 259 263 267 270 275 279 281 281 281 282 285 289 290 285 280 277 276 275 274 273 271 269 269 271 276 280 283 287 290 293 295 295 296 297 299 301 303 303 302 302 302
254 257 261 267 270 274 277 279 281 281 282 286 290 290 285 280 277 275 273 273 272 268 266 268 273 279 283 287 290 292 293 294 295 298 301 304 304 303 303 302 302 302
252 254 259 266 270 274 277 280 282 281 282 287 290 289 285 280 276 272 270 271 269 265 264 269 275 281 286 290 292 292 293 295 297 301 305 305 304 303 302 302 301 302
250 252 258 266 270 273 277 281 283 283 285 288 288 286 283 279 275 269 267 267 265 264 266 271 278 283 288 291 291 292 294 297 299 303 304 303 302 302 301 300 300 301
250 252 258 265 270 274 279 283 284 286 289 289 285 282 279 277 273 268 265 264 263 264 267 273 278 283 287 290 291 293 295 297 300 301 301 301 301 300 300 300 300 301
251 253 259 265 269 275 280 283 286 287 289 288 284 279 275 273 272 268 265 263 263 264 268 273 277 282 286 289 291 293 295 297 298 298 298 299 300 301 301 301 301 301
252 254 259 264 269 276 281 284 286 286 286 285 282 278 274 271 269 267 264 263 263 265 269 273 277 282 285 287 290 293 295 297 298 298 298 299 300 302 303 303 302 301
255 257 260 264 269 276 280 283 284 285 284 282 280 278 274 270 269 267 265 264 265 268 271 275 279 281 284 287 292 295 297 299 299 300 300 300 301 304 304 303 303 302
258 259 261 264 269 274 278 280 283 283 281 279 278 277 273 269 268 267 267 267 269 272 275 278 280 282 286 290 295 298 299 298 300 302 302 302 304 304 304 305 305 304
260 261 262 264 267 271 275 278 280 280 278 277 277 276 272 268 267 267 269 271 273 275 277 280 283 286 290 293 296 298 297 297 301 304 305 305 306 306 307 307 307 306
261 261 262 263 265 269 273 276 277 276 275 275 275 274 271 270 271 271 273 274 276 278 281 284 287 289 291 293 296 297 297 298 303 306 306 307 307 308 308 307 306 306
262 260 260 262 264 267 270 273 274 273 272 271 271 270 271 272 274 275 276 278 279 282 284 286 288 289 291 295 297 298 298 300 303 304 306 307 308 307 306 305 305 305
261 259 259 261 263 266 268 270 271 271 270 268 267 267 269 271 273 275 277 280 282 284 286 287 288 289 293 296 297 297 297 299 301 302 304 306 305 305 304 303 304 304
262 259 258 261 263 265 266 267 268 268 267 266 265 265 266 269 272 274 277 280 283 284 286 288 289 291 294 296 296 296 296 297 299 301 303 304 303 303 302 302 303 303
262 258 258 261 263 264 266 267 267 267 266 264 263 263 265 267 271 274 278 281 284 286 287 288 289 291 293 295 295 295 295 296 298 300 301 301 301 301 301 302 303 303
260 258 259 261 262 263 265 267 267 265 264 263 263 264 266 269 273 277 281 283 285 287 287 286 286 288 290 292 292 292 292 294 296 297 299 300 300 301 301 302 303 303
257 257 258 259 260 261 264 265 264 262 262 263 265 267 270 273 276 279 282 284 285 286 286 286 287 288 288 289 288 289 290 292 294 296 298 300 301 301 302 303 302 304
253 254 256 257 258 259 261 262 262 261 262 263 265 270 274 276 277 279 281 282 284 286 287 288 289 288 288 289 289 288 290 292 293 296 298 300 300 301 302 302 302 305
252 254 254 255 256 258 259 260 261 261 261 263 268 272 275 276 277 278 279 281 282 285 287 289 291 290 290 291 291 291 292 292 292 295 298 300 301 301 300 300 303 306
253 256 257 258 259 260 260 260 262 262 263 266 269 272 274 275 277 278 279 281 283 285 287 290 291 291 291 292 292 292 292 289 289 295 299 301 301 299 296 299 304 307
258 262 264 264 262 261 263 265 265 266 266 267 268 271 273 275 277 279 281 283 285 286 287 290 292 293 295 295 296 296 292 285 286 296 301 302 300 295 295 302 306 307
264 267 270 269 263 263 267 268 267 266 266 267 269 272 274 275 277 280 282 285 286 287 289 292 294 296 297 296 296 295 290 283 288 299 302 301 297 293 297 304 307 307
267 271 274 272 265 265 267 264 264 265 265 268 270 271 272 274 276 280 282 284 286 288 291 294 295 296 296 295 295 292 286 284 291 298 299 295 291 292 297 302 304 306
Height
5815 5815 5816 5816 5816 5816 5816 5816 5816 5816 5816 5816 5815 5814 5814 5814 5815 5815 5815 5815 5815 5815 5815 5815 5815 5815 5815 5814 5814 5814 5813 5812 5812 5811 5810 5809 5808 5807 5806 5805 5804 5803
5813 5813 5813 5813 5813 5814 5814 5814 5814 5814 5814 5814 5813 5813 5812 5812 5813 5813 5813 5813 5813 5813 5813 5813 5813 5813 5813 5812 5812 5811 5811 5810 5809 5808 5807 5807 5806 5805 5804 5803 5802 5801
5810 5810 5810 5811 5811 5811 5811 5812 5812 5812 5812 5812 5811 5811 5810 5810 5810 5811 5811 5811 5811 5811 5811 5811 5811 5811 5810 5810 5810 5809 5808 5808 5807 5806 5805 5804 5803 5802 5801 5800 5799 5798
5807 5807 5808 5808 5808 5809 5809 5809 5810 5810 5810 5809 5809 5809 5808 5808 5808 5809 5809 5809 5809 5809 5809 5809 5809 5809 5808 5808 5807 5807 5806 5805 5804 5804 5803 5802 5801 5800 5799 5798 5796 5795
5804 5805 5805 5805 5805 5806 5806 5807 5807 5807 5807 5807 5807 5807 5806 5806 5806 5807 5807 5807 5807 5807 5807 5807 5807 5806 5806 5805 5805 5804 5804 5803 5802 5801 5800 5799 5798 5797 5796 5795 5793 5792
5801 5802 5802 5802 5803 5803 5804 5804 5805 5805 5804 5805 5805 5805 5804 5804 5803 5804 5804 5804 5805 5805 5804 5804 5804 5804 5803 5803 5802 5802 5801 5800 5799 5798 5797 5796 5795 5794 5793 5792 5790 5788
5798 5799 5799 5800 5800 5801 5801 5802 5802 5802 5802 5802 5803 5803 5802 5801 5801 5801 5802 5802 5802 5802 5802 5802 5802 5801 5801 5800 5800 5799 5798 5798 5796 5796 5794 5793 5792 5791 5790 5788 5786 5784
5795 5796 5797 5797 5797 5798 5798 5799 5799 5799 5799 5800 5800 5800 5799 5799 5798 5799 5799 5799 5800 5800 5800 5800 5799 5799 5798 5798 5797 5796 5796 5794 5793 5792 5791 5790 5789 5787 5786 5784 5782 5780
5792 5793 5794 5794 5794 5795 5796 5796 5796 5796 5796 5797 5798 5798 5797 5796 5796 5796 5796 5797 5797 5797 5797 5797 5796 5796 5795 5794 5794 5793 5792 5791 5790 5789 5788 5787 5785 5784 5782 5780 5778 5776
5789 5790 5791 5791 5791 5792 5793 5793 5793 5793 5794 5795 5795 5795 5794 5794 5794 5794 5794 5794 5794 5794 5794 5794 5793 5793 5792 5791 5790 5789 5788 5787 5786 5785 5784 5783 5782 5780 5778 5775 5773 5772
5786 5787 5788 5788 5789 5790 5790 5791 5791 5791 5791 5792 5792 5791 5791 5791 5791 5791 5791 5791 5791 5791 5791 5791 5790 5789 5788 5787 5786 5786 5785 5784 5783 5782 5781 5779 5778 5776 5774 5772 5770 5768
5784 5784 5785 5785 5786 5787 5788 5788 5788 5788 5789 5789 5789 5789 5788 5788 5788 5788 5788 5788 5788 5788 5788 5787 5786 5785 5784 5784 5783 5782 5781 5780 5780 5779 5777 5776 5774 5772 5770 5768 5766 5764
5781 5781 5782 5783 5784 5784 5785 5785 5785 5786 5786 5786 5786 5786 5785 5785 5785 5785 5785 5785 5785 5785 5784 5783 5782 5782 5781 5780 5780 5779 5777 5776 5776 5775 5773 5772 5770 5768 5766 5764 5762 5760
5778 5778 5779 5780 5781 5781 5782 5782 5782 5783 5783 5783 5782 5782 5782 5782 5782 5782 5782 5782 5782 5782 5781 5780 5779 5778 5777 5777 5776 5775 5774 5773 5772 5770 5769 5768 5766 5764 5762 5760 5758 5756
5775 5775 5776 5776 5778 5778 5778 5779 5779 5780 5780 5780 5780 5779 5779 5779 5780 5780 5780 5780 5779 5778 5778 5777 5776 5775 5774 5774 5773 5772 5770 5769 5768 5767 5765 5764 5762 5760 5759 5756 5754 5752
5772 5773 5773 5773 5774 5775 5775 5776 5776 5777 5777 5777 5777 5777 5776 5777 5777 5777 5777 5777 5776 5775 5775 5774 5772 5771 5771 5770 5769 5768 5767 5766 5764 5763 5762 5760 5758 5757 5755 5753 5750 5749
5769 5770 5770 5770 5771 5772 5772 5772 5773 5774 5774 5774 5774 5774 5774 5774 5774 5774 5774 5773 5772 5772 5771 5770 5769 5768 5767 5767 5765 5764 5763 5762 5761 5759 5758 5757 5755 5753 5751 5749 5747 5745
5766 5766 5767 5767 5768 5769 5769 5769 5770 5771 5771 5771 5771 5771 5771 5771 5771 5771 5771 5770 5769 5769 5768 5767 5766 5764 5764 5763 5762 5760 5759 5758 5757 5755 5754 5753 5751 5750 5747 5745 5743 5741
5762 5763 5763 5764 5765 5765 5766 5766 5767 5768 5768 5768 5767 5767 5768 5768 5768 5767 5767 5766 5766 5765 5764 5764 5763 5761 5760 5759 5758 5756 5755 5754 5753 5752 5751 5749 5747 5746 5743 5741 5739 5737
5759 5759 5760 5761 5762 5762 5763 5763 5764 5765 5765 5764 5764 5764 5764 5765 5764 5764 5763 5763 5762 5761 5761 5760 5759 5758 5757 5756 5754 5753 5752 5751 5749 5748 5747 5745 5743 5741 5739 5737 5735 5733
5755 5756 5757 5758 5758 5759 5759 5760 5761 5761 5761 5761 5760 5760 5761 5761 5761 5760 5760 5759 5758 5758 5757 5756 5755 5754 5753 5752 5750 5749 5748 5747 5746 5745 5743 5741 5739 5738 5736 5734 5732 5729
5752 5753 5754 5754 5755 5755 5756 5757 5757 5758 5758 5757 5757 5757 5757 5757 5757 5756 5756 5756 5755 5754 5754 5753 5751 5749 5748 5747 5746 5745 5744 5743 5742 5741 5739 5737 5735 5734 5732 5730 5728 5726
5749 5750 5750 5751 5751 5752 5752 5753 5754 5754 5754 5753 5753 5753 5753 5753 5753 5753 5752 5752 5752 5751 5750 5749 5747 5745 5743 5743 5741 5741 5740 5739 5738 5737 5735 5733 5731 5729 5728 5726 5724 5722
5747 5747 5747 5747 5747 5747 5748 5749 5750 5750 5750 5750 5750 5750 5750 5749 5749 5749 5749 5749 5748 5747 5746 5745 5743 5741 5739 5738 5737 5736 5736 5735 5734 5733 5731 5728 5727 5725 5724 5722 5721 5718
5743 5744 5744 5744 5743 5743 5744 5745 5746 5746 5746 5746 5746 5746 5746 5746 5746 5745 5745 5745 5744 5743 5742 5741 5739 5737 5736 5734 5733 5731 5731 5730 5730 5729 5727 5725 5723 5721 5720 5718 5717 5714
5740 5740 5740 5740 5739 5739 5741 5742 5742 5742 5742 5742 5742 5743 5743 5743 5742 5742 5741 5740 5739 5738 5737 5736 5735 5733 5732 5730 5729 5727 5726 5726 5726 5725 5724 5722 5720 5718 5717 5715 5713 5711